Voltar ao catálogo

ATLAS 5 CENTAUR DEB

AtivoHEO
NORAD 46637·DEBRIS·🇺🇸 United States

Lançado Sep 17, 2014 de Cape Canaveral Space Force Station

Loading…

Próximas Passagens (próximas 24 horas)

TLE

AtualizadoSource: Space-Track

Época: Sep 13, 2026, 07:36 UTC

1 46637U 14055CM  26256.31680778 -.00000324  00000-0  00000-0 0  9992
2 46637  21.3704  76.4356 5155313 286.5599  24.5362  1.94661244 42198

Acompanhe ATLAS 5 CENTAUR DEB em tempo real com AllMySat

Download on the App Store